Charleston, SC

2:05 AM EDT on March 25, 2017 (GMT -0400)
Charleston Executive

Weather History for KJZI - February, 2012

Change the Weather History Date:

Monday, February 27, 2012

  Actual Average (KCHS) Record (KCHS)
Temperature  
Mean Temperature 60 °F -  
Max Temperature 66 °F 63 °F 84 °F (1962)
Min Temperature 55 °F 40 °F 22 °F (1967)
Degree Days  
Heating Degree Days 4    
Growing Degree Days 10 (Base 50)    
Moisture  
Dew Point 59 °F    
Average Humidity 89    
Maximum Humidity 100    
Minimum Humidity 72    
Precipitation  
Precipitation 0.06 in - - ()
Sea Level Pressure  
Sea Level Pressure 30.36 in    
Wind  
Wind Speed 5 mph (East)    
Max Wind Speed 12 mph    
Max Gust Speed -    
Visibility 6 miles    
Events Rain    
Averages and records for this station are not official NWS values.
T = Trace of Precipitation, MM = Missing Value Source: NWS Daily Summary

Daily Weather History Graph

Daily Weather History Graph

Search for Another Location

Airport or City:

Trip Planner

Search our weather history database for the weather conditions in past years. The results will help you decide how hot, cold, wet, or windy it might be!

Date:

Astronomy

Feb. 27, 2012 Rise Set
Actual Time 6:50 AM EST 6:15 PM EST
Civil Twilight 6:25 AM EST 6:40 PM EST
Nautical Twilight 5:57 AM EST 7:08 PM EST
Astronomical Twilight 5:28 AM EST 7:37 PM EST
Moon 9:40 AM EST (2/27) 11:44 PM EST (2/27)
Length of Visible Light 12h 14m
Length of Day
11h 24m
Waxing Crescent, 29% of the Moon is Illuminated
Feb 27
Waxing Crescent
Feb 29
First Quarter
Mar 8
Full
Mar 14
Last Quarter
Mar 22
New

Hourly Weather History & Observations

Time (EST) Temp. Dew Point Humidity Pressure Visibility Wind Dir Wind Speed Gust Speed Precip Events Conditions
12:15 AM 55.4 °F 46.4 °F 72% 30.42 in 10.0 mi NE 5.8 mph - 0.00 in   Overcast
12:35 AM 55.4 °F 46.4 °F 72% 30.42 in 10.0 mi NE 5.8 mph - 0.00 in   Overcast
12:55 AM 55.4 °F 46.4 °F 72% 30.41 in 10.0 mi NE 5.8 mph - 0.00 in   Overcast
1:15 AM 55.4 °F 46.4 °F 72% 30.41 in 10.0 mi NE 8.1 mph - 0.00 in   Overcast
1:35 AM 57.2 °F 48.2 °F 72% 30.40 in 10.0 mi ENE 11.5 mph - 0.00 in   Overcast
1:55 AM 57.2 °F 48.2 °F 72% 30.40 in 10.0 mi ENE 10.4 mph - 0.00 in   Overcast
2:15 AM 57.2 °F 48.2 °F 72% 30.39 in 10.0 mi ENE 11.5 mph - 0.00 in   Overcast
2:35 AM 57.2 °F 51.8 °F 82% 30.38 in 9.0 mi ENE 11.5 mph - 0.00 in   Overcast
2:55 AM 57.2 °F 51.8 °F 82% 30.37 in 10.0 mi ENE 10.4 mph - 0.00 in   Overcast
3:15 AM 59.0 °F 53.6 °F 82% 30.37 in 10.0 mi ENE 9.2 mph - 0.00 in   Overcast
3:35 AM 59.0 °F 53.6 °F 82% 30.36 in 10.0 mi ENE 9.2 mph - 0.00 in   Overcast
4:15 AM 59.0 °F 55.4 °F 88% 30.36 in 10.0 mi East 6.9 mph - 0.00 in   Mostly Cloudy
4:35 AM 59.0 °F 55.4 °F 88% 30.36 in 10.0 mi East 6.9 mph - 0.00 in   Overcast
4:55 AM 59.0 °F 55.4 °F 88% 30.36 in 10.0 mi ENE 5.8 mph - 0.00 in   Overcast
5:15 AM 59.0 °F 55.4 °F 88% 30.36 in 10.0 mi ENE 4.6 mph - 0.00 in   Overcast
5:35 AM 59.0 °F 55.4 °F 88% 30.36 in 10.0 mi ENE 3.5 mph - 0.00 in   Overcast
5:55 AM 59.0 °F 55.4 °F 88% 30.36 in 9.0 mi ENE 5.8 mph - 0.00 in   Overcast
6:15 AM 60.8 °F 55.4 °F 82% 30.36 in 9.0 mi East 4.6 mph - 0.00 in   Overcast
6:35 AM 60.8 °F 57.2 °F 88% 30.36 in 9.0 mi East 8.1 mph - 0.00 in   Overcast
6:55 AM 60.8 °F 57.2 °F 88% 30.37 in 3.0 mi East 5.8 mph - 0.00 in   Overcast
7:15 AM 60.8 °F 59.0 °F 94% 30.37 in 5.0 mi East 4.6 mph - 0.00 in   Overcast
7:35 AM 60.8 °F 59.0 °F 94% 30.37 in 6.0 mi East 4.6 mph - 0.00 in   Overcast
7:55 AM 60.8 °F 59.0 °F 94% 30.37 in 3.0 mi East 3.5 mph - 0.00 in   Overcast
8:15 AM 60.8 °F 59.0 °F 94% 30.38 in 2.0 mi Calm Calm - 0.00 in   Overcast
8:35 AM 60.8 °F 60.8 °F 100% 30.38 in 1.0 mi Calm Calm - 0.01 in   Overcast
8:55 AM 60.8 °F 60.8 °F 100% 30.38 in 1.0 mi ENE 4.6 mph - 0.05 in Rain Light Rain
9:15 AM 60.8 °F 60.8 °F 100% 30.38 in 2.0 mi ENE 5.8 mph - 0.00 in   Overcast
9:35 AM 62.6 °F 60.8 °F 94% 30.39 in 5.0 mi East 5.8 mph - 0.00 in   Overcast
9:55 AM 62.6 °F 60.8 °F 94% 30.39 in 1.8 mi East 4.6 mph - 0.01 in Rain Light Rain
10:15 AM 62.6 °F 60.8 °F 94% 30.39 in 1.8 mi East 3.5 mph - 0.00 in   Light Drizzle
10:35 AM 62.6 °F 60.8 °F 94% 30.39 in 2.0 mi East 4.6 mph - 0.00 in   Overcast
10:55 AM 62.6 °F 60.8 °F 94% 30.39 in 4.0 mi SE 5.8 mph - 0.00 in   Overcast
11:15 AM 62.6 °F 60.8 °F 94% 30.39 in 4.0 mi Calm Calm - 0.00 in   Overcast
11:35 AM 62.6 °F 60.8 °F 94% 30.39 in 4.0 mi ESE 4.6 mph - 0.00 in   Overcast
11:55 AM 62.6 °F 60.8 °F 94% 30.39 in 4.0 mi Calm Calm - 0.00 in   Overcast
12:15 PM 64.4 °F 62.6 °F 94% 30.38 in 5.0 mi Calm Calm - 0.00 in   Overcast
12:35 PM 64.4 °F 62.6 °F 94% 30.37 in 5.0 mi East 4.6 mph - 0.00 in   Overcast
12:55 PM 64.4 °F 62.6 °F 94% 30.36 in 5.0 mi ESE 4.6 mph - 0.00 in   Overcast
1:15 PM 64.4 °F 62.6 °F 94% 30.35 in 5.0 mi SE 4.6 mph - 0.00 in   Overcast
1:35 PM 64.4 °F 62.6 °F 94% 30.35 in 5.0 mi Calm Calm - 0.00 in   Mostly Cloudy
1:55 PM 66.2 °F 62.6 °F 88% 30.35 in 5.0 mi Calm Calm - 0.00 in   Overcast
2:15 PM 66.2 °F 62.6 °F 88% 30.34 in 5.0 mi Calm Calm - 0.00 in   Overcast
2:35 PM 66.2 °F 62.6 °F 88% 30.34 in 6.0 mi Calm Calm - 0.00 in   Overcast
2:55 PM 66.2 °F 62.6 °F 88% 30.33 in 6.0 mi SSE 4.6 mph - 0.00 in   Mostly Cloudy
3:15 PM 66.2 °F 62.6 °F 88% 30.32 in 7.0 mi SE 5.8 mph - 0.00 in   Mostly Cloudy
3:35 PM 66.2 °F 62.6 °F 88% 30.32 in 7.0 mi ESE 5.8 mph - 0.00 in   Mostly Cloudy
3:55 PM 66.2 °F 62.6 °F 88% 30.32 in 7.0 mi ESE 4.6 mph - 0.00 in   Overcast
4:15 PM 66.2 °F 60.8 °F 83% 30.32 in 8.0 mi ESE 4.6 mph - 0.00 in   Overcast
4:35 PM 66.2 °F 62.6 °F 88% 30.32 in 8.0 mi Calm Calm - 0.00 in   Overcast
5:15 PM 66.2 °F 60.8 °F 83% 30.32 in 7.0 mi Calm Calm - 0.00 in   Mostly Cloudy
5:35 PM 66.2 °F 62.6 °F 88% 30.33 in 6.0 mi Calm Calm - 0.00 in   Mostly Cloudy
5:55 PM 64.4 °F 62.6 °F 94% 30.33 in 5.0 mi Calm Calm - 0.00 in   Overcast
6:15 PM 64.4 °F 62.6 °F 94% 30.32 in 3.0 mi Calm Calm - 0.00 in   Overcast
6:35 PM 64.4 °F 62.6 °F 94% 30.32 in 6.0 mi Calm Calm - 0.00 in   Overcast
6:55 PM 64.4 °F 62.6 °F 94% 30.32 in 5.0 mi Calm Calm - 0.00 in Rain Light Rain
7:15 PM 64.4 °F 62.6 °F 94% 30.33 in 5.0 mi Calm Calm - 0.00 in   Overcast
7:35 PM 64.4 °F 62.6 °F 94% 30.33 in 5.0 mi Calm Calm - 0.00 in   Overcast
7:55 PM 64.4 °F 62.6 °F 94% 30.34 in 4.0 mi Calm Calm - 0.00 in   Overcast
8:15 PM 64.4 °F 62.6 °F 94% 30.34 in 4.0 mi Calm Calm - 0.00 in   Overcast
8:35 PM 64.4 °F 62.6 °F 94% 30.33 in 5.0 mi Calm Calm - 0.00 in   Overcast
8:55 PM 64.4 °F 62.6 °F 94% 30.34 in 5.0 mi Calm Calm - 0.00 in   Overcast
9:15 PM 62.6 °F 62.6 °F 100% 30.35 in 4.0 mi North 4.6 mph - 0.00 in   Overcast
9:35 PM 64.4 °F 62.6 °F 94% 30.35 in 5.0 mi NNW 5.8 mph - 0.00 in   Overcast
9:55 PM 62.6 °F 62.6 °F 100% 30.36 in 4.0 mi North 5.8 mph - 0.00 in   Overcast
10:15 PM 62.6 °F 60.8 °F 94% 30.36 in 1.8 mi North 5.8 mph - 0.00 in   Overcast
10:35 PM 60.8 °F 60.8 °F 100% 30.36 in 1.8 mi NNW 6.9 mph - 0.00 in   Overcast
10:55 PM 60.8 °F 59.0 °F 94% 30.35 in 1.8 mi NNW 4.6 mph - 0.00 in   Overcast
11:15 PM 60.8 °F 57.2 °F 88% 30.35 in 1.8 mi North 6.9 mph - 0.00 in   Overcast
11:35 PM 59.0 °F 57.2 °F 94% 30.35 in 1.8 mi North 9.2 mph - 0.00 in   Overcast
11:55 PM 57.2 °F 57.2 °F 100% 30.35 in 1.8 mi North 9.2 mph - 0.00 in   Overcast